Wind_Gust
19 19 19 19 18 18 18 19 19 20 19 20 20 20 20 21 21 21 22 22 21 22 22 24 24 24 25 25 27 25 24 31 28 21 16 16 11 14 18 19 22 21 18 19 16 16 18 18 18 15 18 20 24 28 24 28 22 24 36 40 42 39 41 33 36 33 26 27 21 16 13 15 23 16 15 16 15 14 16 15 14 12 12 10 13 22 26 27
19 19 20 20 20 19 19 19 19 20 20 19 20 20 20 20 21 21 22 21 21 22 22 22 23 23 24 25 25 24 29 26 26 22 18 17 14 15 17 19 18 18 17 19 17 17 18 19 18 19 22 26 18 27 24 34 28 35 36 40 45 40 39 30 32 29 27 29 22 20 16 18 23 20 20 22 16 17 19 18 16 14 12 14 18 23 26 26
18 19 20 20 21 20 20 21 21 21 21 21 20 21 21 20 20 21 21 21 22 22 22 22 23 23 23 24 24 25 29 28 23 15 15 9 12 15 19 21 21 20 17 19 17 18 20 17 16 21 25 25 26 27 28 35 33 36 36 44 46 34 33 31 34 27 26 22 24 23 20 21 20 24 16 21 22 18 21 19 18 17 16 16 20 23 25 26
19 19 19 20 20 20 22 21 22 22 21 22 21 21 21 21 21 20 20 21 21 21 22 22 22 23 24 23 22 31 27 26 19 19 15 13 16 19 24 24 24 22 16 19 17 17 18 16 14 22 25 29 25 28 33 32 40 34 43 48 44 32 37 34 27 27 24 24 25 24 18 24 24 20 21 19 24 25 23 19 17 20 22 22 23 26 26 28
20 19 20 20 21 21 21 21 21 21 22 22 22 22 22 22 22 21 20 20 20 21 21 21 22 23 23 22 23 26 26 24 16 13 15 14 17 22 26 24 26 22 16 14 14 16 18 20 21 22 27 33 27 26 33 33 35 31 42 40 35 31 35 31 27 27 24 23 25 26 25 27 20 23 23 23 28 26 22 17 20 17 25 28 29 28 27 28
20 20 20 20 21 21 21 21 22 22 22 22 22 22 22 23 22 21 20 20 20 20 21 20 21 22 23 18 28 20 21 17 14 13 14 16 20 25 26 23 24 21 14 12 17 16 19 21 23 28 32 29 30 36 30 33 28 42 36 34 35 37 32 27 27 27 26 28 26 28 25 22 24 22 24 25 28 22 15 12 16 17 26 27 28 30 28 29
20 20 20 20 21 20 21 21 22 23 23 22 23 23 22 22 22 21 21 21 20 20 20 20 20 21 20 16 24 16 14 27 10 12 18 17 21 26 27 22 18 20 14 11 16 21 22 23 26 25 27 29 29 38 28 30 29 37 42 28 35 32 30 27 26 23 27 27 29 31 21 26 23 30 21 27 25 16 12 11 13 16 21 25 30 30 32 33
20 20 20 21 21 21 22 22 23 23 23 23 22 23 23 22 21 22 21 21 21 21 20 20 19 19 18 24 22 14 19 23 15 12 11 19 22 26 25 23 19 19 15 10 11 20 19 26 29 26 30 31 26 32 25 28 29 35 44 31 27 29 27 28 24 26 25 27 27 20 22 26 25 28 19 24 25 16 12 12 15 18 21 25 26 30 28 27
21 21 21 21 21 21 21 22 23 24 23 23 22 22 23 22 21 21 21 22 21 20 19 18 19 17 14 21 21 22 18 12 11 9 12 19 25 23 21 20 18 17 17 13 14 14 18 25 27 27 25 29 22 26 27 26 37 37 34 29 18 25 26 26 24 26 27 27 24 25 30 27 25 13 24 21 22 13 11 15 17 20 23 27 27 28 28 28
21 22 22 22 22 22 22 23 23 23 23 23 23 22 22 21 21 21 21 21 21 20 19 19 18 16 18 19 18 21 14 9 9 12 16 23 24 24 19 15 16 16 15 10 11 17 20 18 23 22 21 21 20 24 23 30 26 20 32 31 26 19 24 26 26 25 25 27 26 33 30 29 19 22 33 20 13 12 14 16 18 22 24 25 24 25 24 24
22 21 22 22 23 22 22 24 24 23 23 23 22 22 22 21 21 21 22 21 21 20 18 18 17 16 19 12 19 23 14 10 11 20 26 24 23 22 21 19 13 14 13 14 14 16 18 18 13 14 19 29 16 23 28 32 25 10 21 29 26 20 22 25 28 26 26 32 26 29 30 26 24 28 34 23 17 16 18 18 20 22 23 24 22 23 21 22
22 22 22 22 23 22 23 23 24 24 23 23 22 22 22 21 22 21 22 21 21 19 18 17 17 20 19 21 27 32 10 15 24 26 25 23 21 21 20 18 14 14 14 15 12 13 16 18 16 21 22 14 31 16 31 21 25 17 14 27 27 26 31 26 34 31 28 29 24 24 27 31 31 33 27 21 22 19 18 20 21 22 22 22 22 23 23 24
22 22 22 22 23 23 23 24 24 24 24 23 23 22 22 21 21 21 22 22 19 18 18 17 14 18 18 29 29 28 28 24 23 22 25 20 19 19 18 16 14 14 15 16 13 9 12 18 17 20 25 17 18 32 14 25 22 22 21 25 24 31 37 31 26 31 29 29 26 27 41 38 37 29 24 24 25 21 19 22 22 22 22 22 22 24 23 22
23 22 23 23 23 24 24 24 25 25 24 24 23 22 21 21 23 23 23 22 22 20 17 14 16 17 20 36 26 19 20 22 21 22 20 15 15 17 11 11 11 12 13 17 15 14 14 14 16 20 19 20 22 14 17 18 22 31 23 23 31 30 40 34 39 31 33 29 27 31 40 40 31 31 28 27 25 25 26 24 22 23 22 23 23 23 24 22
23 23 23 24 24 24 25 26 25 25 24 23 23 22 22 24 24 24 23 23 20 17 17 11 18 17 23 30 18 17 11 15 18 18 13 13 15 18 11 12 14 11 13 16 14 12 12 13 16 24 28 22 22 18 26 20 28 29 32 37 33 36 28 31 38 35 38 35 31 32 43 39 30 30 31 28 27 25 27 26 24 24 25 24 23 24 24 23
24 24 25 24 24 26 26 26 25 24 23 24 22 23 24 24 24 24 23 21 20 17 16 13 15 18 23 35 18 14 16 15 12 10 9 12 16 19 18 17 17 16 14 15 15 14 14 13 25 25 25 21 28 26 25 28 30 33 36 29 37 35 29 25 38 36 36 33 31 40 44 30 32 25 28 26 28 27 27 25 23 22 23 25 24 23 23 23
25 25 25 25 25 26 25 25 25 24 22 22 23 23 24 23 24 22 15 13 11 10 14 15 8 13 18 17 15 19 14 12 10 12 11 17 19 19 17 15 11 9 13 14 15 15 16 19 18 26 27 28 29 29 31 34 31 36 37 40 32 36 34 31 28 36 36 32 37 42 45 29 17 27 28 26 28 27 27 25 24 26 25 25 24 24 24 25
26 26 25 26 25 25 25 25 24 23 22 21 22 22 31 22 13 8 11 12 12 9 9 9 13 15 36 24 18 13 14 13 13 18 21 24 15 13 14 15 11 14 12 18 19 22 22 25 25 28 26 30 33 35 41 43 43 40 38 37 36 31 34 29 35 36 38 36 32 35 38 32 19 26 30 28 26 26 28 28 27 28 27 25 23 23 23 24
26 26 25 26 25 26 26 25 23 21 20 21 24 22 20 11 14 12 12 11 14 15 16 19 19 20 16 12 8 14 16 12 18 18 21 16 11 13 15 14 13 15 20 24 26 25 26 24 25 28 36 38 40 40 44 33 31 33 31 33 28 32 33 39 26 28 37 38 36 35 41 37 28 25 28 28 27 29 28 26 26 24 24 23 23 23 23 26
26 26 26 26 26 26 26 23 20 20 22 19 26 26 17 16 15 16 14 14 20 22 24 22 23 26 30 30 26 20 17 17 23 15 15 15 20 17 19 16 15 17 21 31 26 33 24 30 34 35 36 39 38 38 34 32 16 24 30 28 31 29 24 28 22 27 34 34 36 36 34 32 32 26 28 29 27 28 27 28 28 24 25 26 27 26 27 26
27 26 26 27 27 26 24 21 19 19 15 21 22 19 16 18 19 22 24 25 28 24 25 26 25 25 32 24 23 23 26 21 14 17 19 11 13 13 22 21 20 24 28 26 31 26 31 34 34 32 33 31 33 32 32 27 14 23 22 25 31 29 27 27 25 26 32 32 31 33 33 33 33 29 28 28 29 31 30 29 28 28 27 26 27 28 29 26
27 27 27 27 27 26 24 21 19 18 10 16 15 16 14 13 13 15 16 28 18 23 24 27 23 27 26 26 25 18 16 29 25 20 23 20 20 24 18 23 22 27 24 27 29 30 36 40 36 33 30 27 27 33 35 34 23 19 26 26 26 29 23 20 26 24 29 30 28 30 34 33 33 31 28 31 32 32 31 31 31 31 30 28 28 29 28 24
27 27 28 27 26 25 23 22 20 11 18 14 14 13 15 12 11 13 15 26 36 19 21 20 20 23 27 21 21 11 17 23 26 13 15 20 20 29 18 24 23 24 25 28 37 33 35 39 38 29 26 27 29 33 36 37 27 23 25 26 32 25 30 30 30 27 26 32 26 25 30 28 28 29 31 31 33 29 27 28 27 25 28 29 29 29 28 26
28 27 27 27 26 24 25 22 17 14 13 14 15 15 12 12 12 11 16 19 28 22 16 11 13 15 16 14 13 20 19 14 13 14 11 23 24 20 29 23 23 26 30 31 35 39 36 24 27 30 31 28 28 27 31 33 34 27 23 26 25 27 31 26 28 29 23 24 21 20 25 28 29 32 35 31 30 26 27 27 28 28 26 24 22 22 24 26
28 28 27 26 26 25 25 25 16 10 14 16 15 8 9 12 12 9 17 24 24 20 10 13 12 15 15 10 13 16 14 19 22 19 12 17 23 21 25 24 27 29 25 28 33 41 38 23 16 32 34 29 30 32 35 33 35 33 28 24 22 23 28 26 24 28 28 30 31 26 32 37 29 31 33 30 34 32 29 28 30 29 28 26 26 25 25 24
27 27 27 26 25 24 24 22 7 12 16 17 11 8 11 11 10 10 13 17 20 16 14 13 14 15 17 14 14 14 9 18 14 24 19 18 19 22 19 30 29 28 27 30 37 42 36 27 17 26 30 31 32 32 29 32 33 32 34 25 17 18 24 29 27 29 31 36 35 33 35 33 29 34 33 32 32 31 28 29 29 30 30 28 27 27 27 27
28 27 26 26 24 22 20 12 13 15 16 10 10 9 12 11 8 11 19 16 14 15 11 19 16 19 17 12 16 14 18 15 15 14 17 19 21 17 25 25 26 26 24 28 37 45 32 32 23 23 32 35 33 35 32 34 34 36 21 27 26 22 24 24 26 30 25 22 22 34 39 31 31 35 33 32 31 33 32 31 30 33 27 28 28 28 28 30
29 28 27 26 24 18 17 21 18 16 16 12 10 10 12 9 9 12 20 20 18 11 10 13 11 16 15 12 15 21 17 17 20 18 14 16 19 21 28 24 27 25 26 29 39 24 31 35 31 27 28 36 36 30 25 32 38 29 19 23 26 26 25 24 27 29 27 25 30 35 34 38 33 26 33 34 33 36 37 35 32 32 29 29 31 32 30 29
30 29 29 27 25 22 20 17 14 17 11 10 8 8 11 9 13 18 15 16 16 17 17 12 15 14 13 13 18 20 19 12 17 12 11 13 23 20 29 27 25 23 25 30 33 29 32 31 31 27 30 34 26 27 25 32 36 25 19 22 22 22 23 25 28 28 29 27 29 32 37 42 34 20 33 35 37 40 40 35 32 33 31 32 34 32 32 29
31 32 31 28 22 12 12 13 18 14 11 9 10 11 11 12 14 12 14 16 15 18 11 13 15 12 16 16 18 18 21 19 17 17 14 19 22 22 24 15 24 24 27 30 33 25 20 22 31 34 33 28 26 27 26 29 28 22 21 23 24 22 22 21 25 30 27 31 36 30 34 35 34 32 33 39 47 35 31 31 32 33 35 35 34 33 34 34
34 33 30 23 16 10 8 12 13 12 13 12 11 11 14 17 13 15 14 14 12 13 10 11 13 9 15 16 26 16 20 22 20 20 22 18 22 26 21 23 21 24 26 29 35 28 20 18 34 37 25 25 21 31 28 27 29 25 35 29 28 25 21 24 23 20 33 37 33 31 32 35 38 31 33 32 25 31 34 34 35 37 37 37 32 33 32 31
35 34 28 19 11 10 12 13 11 9 11 11 9 9 11 15 17 17 18 15 21 8 10 9 8 11 15 19 25 25 27 20 18 22 24 24 24 32 32 25 32 29 30 30 33 28 28 24 27 29 27 26 27 26 32 32 31 31 32 31 31 34 31 32 32 31 35 37 25 31 30 34 45 27 20 30 31 33 33 33 36 36 35 32 31 33 35 33
36 32 24 10 8 12 15 10 9 9 11 13 9 8 14 13 19 13 21 7 17 9 9 7 13 16 19 21 28 24 19 23 13 22 23 25 25 27 25 29 22 27 23 30 28 34 28 22 29 31 28 31 27 35 37 38 36 33 40 39 39 41 34 29 34 33 32 26 13 29 29 36 24 34 23 28 29 33 33 34 31 33 32 32 32 33 34 33
31 26 16 9 9 12 8 11 9 10 11 9 9 11 14 15 20 10 20 16 14 8 9 12 14 19 20 25 19 14 19 16 18 21 24 24 26 26 29 26 23 22 24 29 35 36 31 31 32 34 36 31 34 31 31 29 38 39 34 40 35 35 45 36 39 39 34 29 25 22 34 30 30 21 29 25 27 29 31 32 29 30 32 30 29 29 32 31
28 18 8 9 8 11 12 12 11 8 10 9 8 10 15 20 19 20 21 18 12 12 16 11 13 16 21 22 19 20 19 14 19 18 24 26 25 26 27 27 28 25 17 29 29 32 29 27 27 33 24 33 31 29 29 30 30 32 35 31 36 36 22 27 12 20 30 27 25 32 31 18 21 15 13 26 27 26 28 30 29 29 30 30 28 29 31 31
19 12 9 9 9 11 12 13 11 10 10 9 11 14 18 17 23 11 16 7 12 11 17 21 23 19 22 19 11 13 14 17 13 21 23 25 19 25 22 22 32 28 25 27 28 29 32 26 28 34 28 32 29 28 32 32 40 37 37 45 37 26 26 15 8 14 8 19 26 22 31 16 15 13 14 22 28 28 27 28 28 29 28 27 27 29 28 30
15 16 11 11 11 10 10 14 14 12 11 10 12 18 16 26 19 24 18 13 11 6 11 16 12 13 14 12 12 12 12 15 15 21 20 20 21 18 23 22 22 24 24 16 28 17 26 21 27 35 28 28 27 26 26 32 25 37 43 36 26 20 22 24 24 15 21 26 22 30 31 25 22 24 24 24 26 28 29 28 29 27 26 26 27 28 30 31
13 11 9 12 14 9 10 14 14 12 10 9 16 17 20 28 16 21 21 22 11 11 16 13 11 5 11 11 15 12 13 15 17 21 16 22 17 17 22 27 24 24 19 14 21 19 18 24 30 30 28 29 29 24 26 27 27 28 31 27 36 33 27 28 25 26 27 25 23 24 25 28 26 21 25 28 32 30 29 30 31 29 28 28 27 28 28 28
10 12 11 14 13 9 12 14 14 13 8 12 18 21 11 22 24 24 24 25 14 10 15 16 14 10 11 14 11 10 15 15 17 20 19 23 18 21 25 23 22 24 19 14 14 22 15 20 29 29 29 28 28 30 32 33 27 17 19 37 29 26 28 30 26 14 28 20 19 20 27 31 26 22 26 26 29 31 30 31 30 30 31 31 29 28 30 33
10 14 8 11 9 9 12 14 11 11 8 14 14 24 17 26 32 22 19 18 17 13 16 10 11 12 11 11 12 10 14 13 15 16 16 18 15 14 22 25 21 23 18 15 11 11 16 14 29 31 26 29 31 34 30 32 35 30 30 33 34 30 20 24 23 23 23 23 23 20 22 26 22 22 18 23 28 28 30 30 29 30 31 31 30 30 31 33
9 14 11 9 9 12 13 13 10 11 12 18 19 25 26 25 25 31 25 18 18 13 17 10 9 15 8 11 11 10 12 15 13 16 15 17 19 16 18 22 20 21 18 14 14 14 12 14 22 32 33 33 28 26 23 28 31 30 29 31 31 32 32 33 29 25 23 24 22 23 26 13 20 27 25 24 24 27 29 30 31 30 32 31 29 26 27 29
15 13 12 8 7 10 12 10 13 11 14 17 22 23 30 22 28 26 23 12 17 18 14 13 12 11 14 16 12 10 12 14 14 14 16 15 19 16 21 20 20 19 23 21 16 15 12 11 23 26 27 28 26 27 22 21 27 26 27 28 28 32 26 33 29 25 22 19 12 16 16 13 19 19 27 26 23 26 28 30 30 28 29 29 27 23 24 28
12 11 11 7 9 10 11 16 13 12 13 23 23 25 20 26 22 29 23 12 10 9 10 14 8 9 12 12 9 11 12 14 14 15 13 16 15 24 14 24 21 22 21 18 13 16 7 16 26 25 22 24 15 17 19 17 21 26 27 27 30 34 30 27 25 17 24 16 18 14 13 15 14 9 9 12 13 12 14 19 23 21 18 20 20 25 27 28
13 12 9 11 7 8 13 18 20 20 24 23 25 30 19 20 20 23 17 10 14 8 8 7 3 7 4 7 9 12 11 12 13 15 17 14 15 11 12 21 22 26 23 17 18 19 17 15 15 27 27 22 20 18 21 20 24 30 29 28 24 27 25 21 22 16 26 25 19 14 15 15 18 12 12 11 13 14 17 19 19 19 18 21 24 25 25 27
18 12 10 8 11 10 9 15 15 21 24 27 33 32 32 24 12 19 19 20 10 9 6 9 7 5 9 11 7 10 12 15 9 16 11 14 18 10 15 19 23 22 18 12 11 18 13 13 17 26 25 25 27 28 34 34 35 30 24 25 23 24 26 27 27 21 27 21 23 21 19 26 20 16 18 15 14 13 15 17 19 20 21 26 26 26 28 30
15 15 10 10 10 11 14 11 12 15 23 22 25 23 25 35 29 19 14 21 8 11 13 9 7 8 4 6 10 12 15 13 15 14 19 18 16 15 14 20 25 26 13 14 15 16 12 10 13 15 14 19 16 16 16 19 23 29 23 23 25 25 26 26 22 24 28 17 23 22 26 25 25 23 16 16 13 14 16 18 21 20 22 25 26 28 29 30
13 14 17 19 20 16 13 10 12 16 20 21 24 26 28 29 32 25 12 21 9 14 10 12 7 6 9 6 11 10 16 14 16 16 16 14 14 15 15 21 24 22 14 19 18 14 13 12 10 14 15 18 15 13 10 13 24 27 25 26 24 26 25 27 29 31 21 21 29 24 24 25 32 29 18 13 13 12 14 17 19 21 25 28 28 28 23 29
15 11 10 9 14 16 21 9 21 24 22 19 23 24 27 30 28 34 27 9 17 15 16 8 9 12 9 6 8 9 10 15 9 12 15 17 13 15 17 16 20 19 19 22 18 18 14 10 9 11 13 15 15 17 14 13 14 21 27 25 28 27 27 29 28 24 20 25 21 20 26 26 32 27 13 13 14 17 17 18 19 20 23 24 26 28 29 31
13 15 10 13 16 14 17 22 22 20 25 17 22 20 27 27 30 23 24 24 25 17 12 17 18 13 12 13 13 10 12 15 14 19 18 17 18 18 19 18 17 20 25 22 19 17 14 13 10 11 16 16 16 16 15 15 16 17 23 27 27 29 31 29 26 24 20 17 19 16 25 31 32 24 13 11 10 14 15 18 19 24 27 28 29 29 31 31
18 18 15 18 16 24 19 18 19 20 20 13 18 21 31 27 27 33 27 20 30 20 15 10 18 25 21 15 14 12 15 14 10 16 17 16 18 20 17 15 16 25 26 23 19 14 19 9 8 12 15 18 19 20 18 18 17 22 21 23 27 29 29 30 29 24 21 22 19 14 17 30 31 11 13 14 12 15 17 21 25 25 27 29 30 31 32 32
13 12 15 18 25 14 17 15 19 18 17 17 22 24 28 26 26 31 32 24 21 26 23 24 28 26 17 10 8 11 13 16 15 16 12 17 17 19 17 20 13 22 23 21 19 13 15 9 10 13 12 15 9 10 12 15 17 19 21 24 26 29 31 32 38 29 26 25 22 19 22 34 33 15 14 14 16 18 20 23 26 27 27 28 29 29 30 30
15 11 12 14 16 12 19 18 17 14 16 21 21 24 26 29 30 30 37 12 10 18 23 24 26 26 15 9 10 16 21 20 18 16 14 15 15 13 14 13 18 20 22 20 14 17 16 15 9 6 13 15 10 13 13 16 18 24 29 32 31 26 24 24 27 25 26 22 25 25 29 33 29 14 14 11 15 17 20 24 26 27 29 29 28 30 33 33
Wind_Speed
13 12 12 13 14 14 14 14 15 15 15 15 16 15 15 14 14 15 15 16 16 16 16 17 17 19 19 19 21 18 19 16 15 10 7 3 4 6 10 13 14 15 14 10 8 8 9 10 10 7 8 8 9 12 10 14 8 9 13 15 19 18 21 17 18 15 13 12 11 8 8 8 13 8 6 7 7 6 7 7 6 3 1 2 4 8 14 16
13 12 13 13 13 14 14 14 14 14 15 15 15 15 15 16 15 14 14 14 15 16 17 16 17 18 19 19 20 19 19 15 15 12 6 8 4 6 10 13 13 14 12 10 9 9 10 10 10 10 10 10 8 11 13 11 13 14 13 16 20 19 17 17 17 17 14 16 11 10 10 10 13 11 8 10 8 8 9 8 8 7 4 5 7 12 14 15
14 14 14 14 15 14 15 15 15 15 15 16 15 15 16 16 16 15 14 14 15 15 16 17 16 17 18 18 19 21 18 16 13 7 7 6 8 10 13 14 13 16 9 10 8 9 10 9 8 11 11 11 11 12 16 12 15 17 15 18 21 19 18 18 21 16 15 14 13 14 10 12 12 12 4 10 12 9 11 7 8 8 8 8 10 12 14 14
14 14 14 14 15 15 15 15 15 15 15 16 16 16 16 16 16 16 15 15 14 14 15 16 17 17 18 17 17 19 15 15 7 9 7 8 9 11 14 16 14 14 8 9 9 8 9 8 6 12 11 13 11 15 14 13 13 14 18 19 19 18 19 20 18 16 15 13 15 14 10 14 14 11 9 11 13 14 11 11 8 7 8 11 12 13 13 14
15 15 15 15 15 15 15 15 16 16 17 17 16 16 17 16 16 16 16 15 15 14 15 15 16 16 17 16 19 14 14 10 6 5 7 6 9 13 15 16 13 12 8 7 6 8 9 10 11 12 12 12 14 13 16 18 16 12 21 24 22 17 20 21 16 17 14 12 15 15 16 14 11 13 13 14 14 10 9 8 8 7 5 13 14 14 13 15
15 15 15 16 16 16 16 16 16 16 16 17 16 16 16 16 16 16 16 15 15 15 14 15 15 16 16 13 15 11 8 4 3 3 5 7 10 13 15 17 11 12 6 4 7 7 10 12 12 12 12 13 17 16 15 18 16 17 19 21 22 21 19 14 16 17 16 14 15 16 15 11 14 12 13 15 16 11 4 4 2 4 7 12 12 14 14 16
15 15 16 16 16 16 16 16 16 16 16 16 15 15 15 15 15 15 15 15 15 16 15 14 14 15 14 14 11 7 5 9 3 4 8 8 10 12 16 16 8 9 6 4 7 9 12 13 14 14 13 14 17 17 16 18 18 19 16 16 22 22 19 16 17 15 16 18 16 16 13 15 13 18 11 16 15 9 2 3 0 2 7 11 13 15 16 17
14 15 16 16 16 16 16 17 17 17 16 16 15 15 15 15 15 15 15 16 15 15 15 14 14 14 13 13 10 4 8 7 4 5 3 6 11 15 14 13 5 9 7 3 3 10 10 15 16 13 14 14 12 16 15 17 18 18 20 19 16 18 16 18 14 16 16 17 16 13 13 16 15 15 9 14 15 9 4 3 3 4 8 11 12 14 14 14
14 14 16 16 17 17 17 17 17 17 17 17 16 15 15 15 15 15 15 15 16 15 14 14 13 11 11 11 9 10 5 5 5 2 3 9 15 14 13 9 6 8 6 5 6 7 9 12 15 14 11 15 13 16 16 13 15 18 20 18 10 14 16 16 14 16 17 12 13 15 19 17 16 7 11 12 13 6 4 5 5 8 10 11 12 12 13 13
17 17 16 16 17 17 17 17 18 18 17 17 17 16 16 16 15 15 15 15 16 15 14 13 13 11 11 8 8 9 1 3 1 4 9 14 15 15 11 7 7 7 6 3 4 9 11 7 13 12 12 11 11 12 14 18 10 11 20 19 16 11 14 16 15 15 15 15 16 19 18 17 11 10 13 13 7 6 6 7 8 10 11 11 10 10 11 13
17 17 17 17 17 17 17 17 17 18 17 18 17 17 17 16 16 16 16 15 16 15 13 12 10 10 10 5 8 9 5 3 3 9 16 15 14 11 9 7 4 6 5 5 7 8 10 10 5 5 7 9 7 13 16 14 15 2 10 18 16 11 12 14 17 16 14 15 16 18 19 16 15 14 16 12 10 8 8 9 10 10 10 10 10 10 11 11
17 18 18 18 18 18 18 18 18 18 17 17 17 17 17 16 16 15 16 16 16 15 13 10 11 7 9 10 11 12 3 6 11 11 12 12 10 10 10 7 5 6 6 7 5 5 8 9 8 9 5 5 12 8 16 12 15 9 6 13 16 15 12 16 19 19 16 13 15 15 16 19 17 19 18 11 14 12 11 11 11 10 10 10 11 10 10 11
17 17 18 17 17 18 18 18 18 19 18 17 17 17 16 17 16 16 17 17 15 14 13 11 9 7 9 13 12 15 15 11 11 13 12 8 8 9 7 4 3 4 7 8 6 2 5 9 9 11 13 6 8 9 5 15 12 12 11 11 13 16 18 19 15 19 18 13 16 15 16 18 20 18 15 15 15 13 12 12 12 10 10 10 11 10 11 11
17 17 17 18 18 17 17 18 19 19 19 18 17 17 16 17 18 17 17 17 16 15 12 9 7 7 9 15 9 9 11 10 11 12 9 6 7 7 3 4 3 3 4 8 7 4 5 5 8 10 9 9 8 4 8 7 11 13 11 10 12 13 16 20 18 20 20 15 16 19 17 18 18 20 18 18 16 16 15 14 13 11 11 10 11 11 12 13
18 18 18 18 19 19 19 19 19 19 18 18 17 16 17 19 19 18 17 17 14 10 8 8 8 7 10 10 9 6 4 5 8 7 3 5 6 8 3 3 6 4 4 7 5 4 4 6 8 11 11 11 11 6 11 8 11 12 11 15 14 16 12 18 23 22 20 17 20 19 18 18 17 18 20 17 17 16 16 15 14 12 11 11 11 12 12 12
19 19 19 18 18 19 19 19 18 19 18 17 16 17 19 19 18 17 15 12 10 6 5 6 6 7 10 12 2 4 6 4 2 1 2 4 7 10 10 8 6 6 7 6 5 4 5 5 11 11 11 11 14 10 10 10 12 13 16 14 17 16 13 12 24 23 24 16 20 24 18 15 17 13 18 16 18 17 16 15 14 13 12 12 11 11 12 12
19 19 19 19 19 19 20 18 19 19 18 16 17 19 19 17 14 10 6 3 3 4 5 4 1 4 6 3 4 9 4 4 2 5 3 8 10 10 9 7 4 2 6 6 6 6 7 8 7 10 13 11 12 12 13 15 13 14 16 16 16 19 16 12 15 21 23 20 19 26 20 17 8 14 16 16 18 17 16 15 14 13 12 13 12 12 12 12
20 20 20 19 19 19 20 20 19 19 17 17 18 18 17 15 10 6 6 3 2 1 2 1 4 5 13 10 8 2 6 5 3 5 12 12 8 6 6 6 2 4 3 9 9 11 10 9 9 11 11 13 15 15 16 19 19 17 17 17 16 17 20 16 14 20 23 23 19 21 22 19 10 13 18 17 17 16 17 16 16 15 14 13 12 12 12 12
19 20 20 20 20 20 20 19 18 17 16 17 20 19 17 8 5 4 2 1 4 5 5 6 7 7 5 3 2 6 6 2 7 9 10 8 4 5 7 6 6 6 9 10 10 14 10 9 10 11 15 16 18 20 21 18 19 19 18 16 14 14 15 17 13 16 23 22 19 21 19 20 16 14 16 17 17 17 17 16 14 14 12 12 12 11 11 12
20 20 20 20 21 21 20 18 16 16 15 13 12 10 5 4 4 5 5 6 9 11 14 12 8 13 16 17 13 10 8 9 10 7 8 7 8 9 10 7 7 8 10 12 12 17 10 12 14 15 17 20 24 24 21 20 7 13 18 16 15 14 12 16 12 15 21 18 20 21 20 19 19 15 16 17 16 16 16 17 14 13 13 12 12 13 13 14
20 20 20 20 21 21 19 17 15 15 12 10 11 8 5 7 8 6 11 12 16 14 14 13 14 14 16 12 11 12 11 6 6 8 9 4 5 4 9 10 9 10 12 15 14 12 15 15 16 18 21 20 21 20 18 18 6 13 11 14 15 16 12 14 13 15 17 16 16 20 20 20 20 18 16 16 17 18 18 18 16 15 14 12 14 14 14 13
19 21 20 21 21 20 19 17 16 15 8 7 6 5 5 5 4 5 5 9 9 12 15 16 14 15 14 14 12 8 7 7 9 10 10 9 9 10 8 11 11 11 11 14 13 12 15 18 19 21 18 16 16 20 21 21 12 9 11 11 11 12 11 10 15 14 15 15 12 18 19 18 20 18 17 18 19 17 18 18 17 16 15 12 13 14 14 13
20 20 20 21 20 20 18 18 17 9 7 5 5 5 5 5 4 4 6 10 16 9 10 9 11 13 12 9 8 4 9 10 7 3 5 10 11 14 9 10 11 11 11 14 15 15 15 18 24 18 15 16 17 20 22 23 15 10 10 11 14 12 14 12 15 15 15 12 11 14 16 13 16 17 18 19 19 16 16 16 15 13 14 15 15 14 13 15
20 20 19 20 20 19 20 18 15 9 4 6 7 6 4 4 4 5 7 6 11 11 6 2 6 7 7 5 2 8 8 4 5 3 3 10 11 11 13 13 12 12 13 16 20 18 17 13 16 18 19 17 16 16 19 16 15 14 12 12 10 15 15 12 12 15 13 13 12 9 10 11 14 17 16 17 17 15 15 14 14 12 12 11 11 11 11 14
21 20 20 20 19 19 18 21 9 3 6 8 7 1 2 5 4 3 6 8 7 7 3 6 5 6 4 2 4 7 5 8 11 9 4 8 12 9 12 9 10 13 14 17 19 21 22 14 4 20 22 17 17 17 19 17 16 15 17 14 12 12 17 16 12 15 11 11 13 13 11 14 15 18 17 14 15 17 16 16 16 15 14 13 13 12 12 12
21 21 20 19 19 20 19 11 1 4 8 7 4 0 3 4 3 3 4 3 6 4 4 5 4 5 5 6 5 6 2 7 4 6 7 9 9 9 6 11 9 13 16 17 18 13 16 16 9 14 17 19 20 17 18 20 15 14 14 15 10 9 14 18 15 15 12 14 16 18 15 10 13 18 18 16 17 18 15 17 16 15 14 14 13 12 12 13
21 20 20 19 18 17 9 3 5 7 7 2 1 2 4 3 1 4 5 4 5 4 3 6 6 4 4 4 7 5 7 4 2 6 8 9 10 7 12 11 10 10 10 10 10 15 14 20 14 13 19 19 17 16 16 19 15 14 11 16 16 11 12 14 14 15 10 11 11 20 16 12 11 16 18 19 19 19 20 19 18 16 15 15 14 13 14 15
21 22 21 20 18 13 7 8 9 6 5 5 2 3 5 2 3 4 6 5 1 2 3 4 0 4 6 5 8 9 7 8 8 8 4 7 10 10 12 13 13 14 13 12 18 11 19 19 19 16 17 16 16 16 15 20 16 11 11 13 16 15 14 14 13 12 12 11 12 15 20 13 12 11 20 20 19 22 23 21 19 18 17 16 16 15 16 16
23 22 21 21 18 16 9 7 6 7 3 3 1 2 3 2 5 5 4 5 2 3 3 3 3 5 5 5 9 11 9 4 7 4 4 5 12 8 10 15 13 13 15 17 14 13 13 17 19 17 15 15 14 16 14 19 16 14 10 12 11 12 13 14 12 12 13 11 12 15 18 14 14 9 15 20 20 22 22 21 19 17 18 18 17 17 16 14
24 24 23 20 13 4 4 5 8 6 3 2 3 3 4 4 5 5 3 6 3 4 2 3 5 1 7 7 8 9 11 8 7 6 6 7 11 12 10 6 12 12 13 16 18 13 11 11 16 14 15 14 15 16 15 17 17 13 12 12 11 10 9 9 10 11 11 11 15 18 21 17 12 14 15 17 19 18 16 15 16 18 18 18 17 17 15 15
25 25 22 16 5 2 1 2 1 3 5 4 3 5 5 5 4 4 6 2 2 0 1 4 3 2 6 8 11 6 10 11 10 9 9 8 10 14 10 8 8 9 11 13 17 16 11 8 15 13 15 12 11 16 17 15 18 14 12 12 12 11 9 10 8 9 12 13 17 19 18 22 15 12 15 15 14 18 19 21 21 20 19 17 16 15 16 16
25 23 19 8 3 2 3 4 4 2 3 4 3 3 3 5 4 5 6 5 8 2 3 2 3 3 7 11 13 11 10 9 8 8 10 9 10 13 13 8 10 10 11 13 14 15 14 11 14 18 15 16 13 13 14 17 17 15 15 14 14 12 9 10 11 11 13 13 12 18 18 15 20 12 9 18 18 19 20 18 20 21 20 19 18 18 16 16
24 20 20 3 3 4 5 2 2 1 4 5 2 2 5 4 6 4 7 2 3 0 0 2 6 9 11 13 14 13 10 11 5 11 13 12 11 13 14 15 10 11 6 13 13 15 11 12 16 18 16 15 14 15 15 17 16 16 17 17 16 15 12 12 14 10 11 11 2 16 19 14 11 16 13 11 16 20 20 18 18 20 19 19 18 17 16 16
22 18 5 2 2 3 1 3 1 3 5 3 3 4 5 5 7 5 10 6 6 2 4 4 7 11 12 9 8 6 7 8 9 7 13 10 12 10 11 15 14 11 11 11 13 15 13 13 14 19 13 17 16 15 15 13 18 17 17 17 15 13 12 14 13 14 14 11 11 12 12 10 15 7 17 13 15 17 18 17 17 19 20 19 17 16 16 15
22 12 2 2 2 3 5 5 4 3 4 3 2 3 5 7 7 8 9 7 3 5 9 5 6 7 11 11 10 9 8 3 10 9 11 11 10 10 12 11 15 14 8 10 11 10 17 10 14 19 13 19 17 16 16 17 15 14 15 14 15 15 8 10 2 7 12 10 9 12 9 7 7 6 3 13 15 15 16 18 18 18 17 17 15 16 16 16
14 1 1 2 3 4 4 4 5 4 4 3 3 5 7 6 8 4 4 1 4 4 7 11 13 10 9 7 4 6 7 6 6 10 9 12 9 10 9 8 11 16 9 9 10 11 14 9 17 19 17 19 17 15 15 17 14 15 15 17 17 14 12 4 2 6 3 7 9 6 11 5 4 3 6 12 16 17 16 16 17 17 16 15 15 16 16 15
2 3 3 4 4 3 2 6 5 5 4 4 4 6 6 9 9 13 7 6 2 1 5 6 2 5 5 2 3 3 3 7 6 8 7 9 7 8 9 9 11 14 14 5 10 7 10 8 15 19 18 16 17 16 16 19 11 13 17 16 15 10 9 8 7 4 7 8 6 13 15 11 8 6 12 13 15 17 17 16 16 16 15 15 14 14 16 17
4 2 2 4 6 2 2 5 7 5 4 3 6 11 9 11 8 11 12 13 5 4 6 5 1 1 4 3 4 4 5 5 6 9 5 10 2 8 9 9 15 13 11 6 7 7 6 9 13 18 16 16 17 13 13 16 16 13 12 11 13 9 12 11 7 10 11 9 6 10 13 12 11 7 11 17 19 18 18 17 17 17 16 16 15 17 17 16
3 4 3 5 5 3 3 5 6 5 3 4 6 8 3 8 14 12 11 13 6 2 6 7 5 3 5 4 2 3 5 3 7 8 6 8 5 9 9 9 10 15 11 7 5 8 5 5 11 16 16 15 14 13 13 15 14 8 9 17 15 10 11 12 7 5 9 8 7 8 13 10 10 6 15 15 17 19 18 18 18 17 17 15 14 15 16 16
3 4 1 4 3 1 4 5 4 4 3 5 5 7 6 12 15 13 10 9 6 4 6 5 6 5 5 6 3 3 5 6 4 4 6 6 3 4 10 12 9 12 11 7 3 3 5 3 10 13 16 16 12 11 13 15 16 12 11 14 13 10 9 10 8 8 8 7 8 5 8 9 9 9 7 13 16 17 18 17 14 15 16 17 16 15 15 16
2 4 2 3 2 2 5 6 3 4 4 6 9 11 15 9 12 18 16 12 5 7 8 3 2 6 2 3 3 2 3 5 3 4 5 7 7 5 8 10 8 10 8 7 5 4 2 4 9 13 13 14 12 13 13 16 16 14 11 12 14 14 14 15 12 9 8 7 6 7 6 4 8 7 8 10 13 14 16 17 15 16 17 17 15 15 14 15
5 3 3 2 2 4 4 3 4 3 4 7 9 7 9 11 13 16 13 5 5 5 7 5 6 5 5 7 5 3 3 4 5 4 6 5 9 6 11 12 12 10 8 7 5 6 2 2 9 11 11 12 14 16 13 13 16 14 11 11 13 14 10 11 10 10 7 6 3 7 5 3 8 9 14 13 12 14 16 17 17 16 17 17 15 14 13 13
3 3 4 1 3 5 4 6 4 4 4 9 14 12 10 11 11 14 11 6 2 4 3 6 3 4 6 5 3 4 4 3 3 4 5 6 6 6 7 15 12 13 8 5 5 6 2 4 10 10 10 12 7 10 11 9 13 14 13 13 13 15 14 11 8 6 8 5 5 4 2 4 5 2 1 5 6 4 1 11 14 11 9 11 12 12 13 13
4 3 1 4 2 3 5 5 7 8 9 12 14 15 11 9 10 11 6 6 1 1 2 2 1 4 1 2 3 4 3 4 4 5 6 6 5 4 4 11 14 10 8 6 5 8 3 3 5 11 9 7 8 7 9 10 10 10 10 12 12 13 15 11 11 8 7 11 9 4 5 4 7 4 3 5 2 4 5 4 5 7 7 9 11 11 12 14
6 3 2 1 3 3 2 5 6 8 11 15 16 19 15 10 3 9 8 10 5 4 2 3 2 2 3 5 3 4 4 7 1 6 2 6 4 3 6 11 14 10 8 1 4 3 3 5 6 10 10 11 11 11 13 15 15 10 12 14 11 14 15 12 9 7 7 10 11 4 3 8 9 8 9 7 6 5 5 7 10 10 10 11 11 12 13 14
4 4 1 2 3 3 5 4 5 6 10 12 14 11 14 16 12 9 7 9 3 5 4 3 1 2 2 2 4 5 6 6 5 5 7 7 6 5 5 12 14 11 5 2 7 4 3 3 3 4 3 6 4 6 4 9 9 11 12 14 14 14 15 14 9 8 9 7 9 8 8 6 11 10 8 7 6 4 4 7 8 9 10 11 12 13 13 13
3 2 4 5 7 6 4 2 5 7 8 11 9 10 16 16 16 9 7 7 3 5 3 4 2 2 2 3 5 4 7 6 7 5 7 6 6 5 8 9 11 13 3 4 9 4 4 3 2 4 4 2 2 4 2 6 13 15 14 15 14 16 14 14 11 12 9 8 10 8 15 10 9 8 6 6 4 3 2 4 7 7 9 11 12 13 14 14
3 3 2 2 4 5 8 2 9 11 12 10 9 11 15 17 16 15 13 2 9 8 4 3 3 6 2 2 2 3 4 7 3 4 6 6 5 7 6 8 10 11 10 8 8 6 5 2 1 5 5 5 3 3 3 5 6 11 15 14 16 15 16 16 15 13 11 9 7 11 16 14 12 9 2 4 4 3 2 3 5 6 8 10 12 13 15 15
3 4 1 5 5 5 7 11 12 11 13 8 7 10 15 16 17 10 8 10 11 8 5 7 10 7 3 6 5 2 4 5 5 8 7 7 8 8 7 9 8 10 12 9 8 6 4 4 3 4 8 6 4 4 4 5 8 8 13 17 16 17 18 16 14 15 12 9 10 8 16 19 16 10 1 4 3 2 4 5 6 8 10 12 13 13 14 16
5 6 4 7 7 11 9 8 9 10 8 6 6 11 13 14 17 19 13 9 12 10 6 4 11 16 13 8 6 4 7 6 3 5 8 7 7 7 7 6 5 10 10 9 7 5 7 2 3 5 5 4 3 4 7 9 9 11 12 14 17 17 17 17 15 14 13 11 12 8 8 14 13 2 4 5 4 5 6 8 9 9 11 12 13 14 16 17
4 4 5 7 10 5 7 6 8 7 6 7 8 12 14 16 16 18 16 12 10 13 12 15 18 17 9 2 1 6 6 6 7 6 4 8 6 8 4 6 3 10 11 9 6 4 6 2 3 5 3 2 2 4 5 7 10 11 12 14 16 18 18 17 15 15 14 13 12 10 10 13 13 6 4 5 5 4 6 8 8 9 11 13 14 15 16 17
5 3 4 5 5 6 7 8 7 5 5 8 9 13 10 18 18 18 14 1 3 9 12 15 16 13 5 4 2 8 13 10 8 6 5 5 5 4 5 2 5 8 9 8 6 5 6 5 2 1 3 2 1 5 4 8 9 11 15 17 18 16 14 13 15 15 15 13 12 12 13 16 15 5 4 2 1 2 3 6 8 10 11 13 14 15 15 16
Wind_Direction
7 4 359 358 355 354 352 353 349 349 349 348 344 339 340 341 338 339 343 342 339 341 342 338 338 337 335 334 335 336 324 314 313 304 299 28 4 336 319 322 324 317 311 289 266 255 251 227 217 202 218 209 209 223 186 202 185 193 216 229 235 233 234 231 234 235 239 233 215 173 168 219 250 201 172 190 194 221 166 198 148 160 156 16 79 125 127 135
3 358 356 354 352 350 350 350 350 347 345 343 342 338 336 337 335 332 336 337 337 337 338 340 336 335 338 332 333 333 315 311 302 295 285 55 39 6 350 336 332 330 306 266 245 240 244 223 211 189 208 215 192 216 177 196 189 200 218 226 236 231 235 236 239 236 226 223 235 214 171 222 246 258 162 238 197 188 188 194 180 170 140 128 132 131 139 146
356 355 353 351 351 349 348 348 348 346 344 342 339 337 335 334 335 333 330 330 333 334 334 335 338 335 334 334 335 322 313 306 295 262 123 64 37 6 357 350 338 323 298 273 256 248 239 240 216 195 209 222 197 208 194 195 193 209 222 227 232 234 240 233 236 230 216 235 227 241 206 226 243 246 190 241 263 225 244 227 190 203 178 162 144 148 146 159
353 353 350 348 347 345 343 343 342 343 341 340 336 335 334 334 333 334 328 326 326 329 331 331 334 336 333 334 339 312 307 304 282 112 81 61 17 1 357 351 340 326 316 257 255 249 246 242 241 211 207 222 201 216 195 194 199 200 224 231 233 226 235 235 233 214 220 224 238 243 220 228 234 240 225 243 254 247 249 253 241 232 193 163 158 159 160 166
351 350 349 346 345 344 341 341 340 337 337 336 333 330 332 330 332 331 330 324 324 324 328 327 331 332 334 339 317 307 312 277 98 112 83 36 4 355 352 350 338 331 329 300 246 240 234 223 210 216 220 211 218 204 217 206 204 212 221 231 239 233 235 233 215 217 225 222 238 238 231 224 240 232 226 237 244 249 249 231 214 256 180 161 167 170 171 175
348 346 346 345 343 341 341 340 336 335 334 333 331 331 329 330 330 328 328 327 325 324 324 324 326 332 335 338 305 313 293 298 85 128 49 18 356 346 346 340 331 319 332 263 233 217 215 213 209 204 209 220 209 211 205 217 193 230 224 234 232 233 244 212 211 214 220 224 229 233 240 233 232 226 226 234 241 255 1 36 278 250 173 170 170 169 177 182
348 345 345 344 340 339 338 336 332 331 334 330 330 330 327 328 326 326 324 326 324 323 321 322 325 325 341 305 306 276 286 295 255 53 22 352 339 341 338 326 314 329 326 265 225 222 208 212 211 209 210 217 220 217 213 210 209 226 232 214 228 233 227 212 226 207 199 221 223 232 239 235 226 235 220 231 235 248 65 75 343 232 164 167 173 178 182 185
349 346 342 343 339 335 332 330 330 331 329 328 326 327 327 325 325 324 322 319 320 319 321 320 323 326 335 325 327 297 282 270 51 45 28 331 323 331 329 314 309 329 316 298 259 222 211 217 209 214 223 215 207 216 209 215 212 221 235 233 227 218 215 221 219 207 200 212 224 223 216 224 232 239 209 227 237 213 205 207 186 178 166 174 183 180 183 185
343 342 340 338 335 333 330 329 329 327 327 325 324 326 324 323 321 322 317 316 315 317 317 319 316 332 318 295 311 304 290 60 52 13 303 326 325 322 320 305 328 314 306 268 232 246 231 218 222 218 223 223 220 219 205 200 216 221 230 228 241 223 210 210 209 210 198 200 200 203 221 227 227 220 226 225 221 189 199 215 188 167 180 185 187 180 182 185
343 340 338 336 334 332 331 330 329 327 327 325 324 324 324 320 318 314 312 312 311 310 312 317 312 322 304 308 290 275 27 56 264 294 313 319 321 317 302 298 312 301 281 259 241 225 224 221 223 220 254 278 231 218 207 206 227 216 226 229 226 221 212 203 207 201 199 205 193 213 214 220 195 191 230 210 189 187 197 206 175 187 189 187 185 181 186 190
340 337 336 334 332 330 329 329 326 325 327 325 325 323 320 319 313 310 307 305 305 307 307 307 314 304 295 293 279 266 66 278 324 317 316 318 314 307 309 311 307 278 266 262 249 233 232 247 264 261 241 236 228 227 218 213 224 226 241 221 225 225 212 208 212 208 195 208 202 209 222 215 203 209 229 189 176 181 199 187 181 198 197 188 187 189 189 198
337 334 333 332 331 329 327 327 328 324 324 323 322 321 320 313 309 305 301 301 300 301 300 304 302 288 281 270 250 240 94 298 305 309 311 312 305 296 294 290 273 262 266 261 241 223 233 237 240 230 208 179 235 228 228 220 223 223 205 208 213 221 217 208 210 209 200 205 189 202 228 222 206 219 214 200 176 182 198 192 188 200 200 192 190 195 198 200
336 332 334 333 332 331 329 328 327 323 322 323 322 319 315 309 302 300 300 298 295 297 297 299 301 276 279 272 253 259 272 287 295 300 296 294 294 275 267 262 259 256 250 260 258 233 230 232 241 240 240 270 234 209 21 210 212 224 223 229 213 213 223 209 206 208 203 203 186 181 222 219 215 213 205 187 176 173 187 197 195 194 196 195 194 197 201 201
337 336 334 333 328 330 331 329 327 325 322 321 321 318 310 303 299 299 296 295 294 289 283 287 285 273 266 265 280 268 268 277 285 276 276 287 284 301 235 206 248 253 227 245 263 290 242 235 242 248 260 239 213 23 237 201 208 215 207 219 228 211 221 202 203 198 204 193 185 192 227 232 221 210 197 182 173 175 191 199 196 191 193 192 195 198 202 201
337 336 335 332 331 329 329 328 327 326 323 319 320 313 305 297 298 300 297 291 283 278 273 269 246 266 255 271 267 276 348 265 261 262 282 308 318 305 218 272 275 261 237 236 243 224 235 238 223 227 229 228 274 264 226 204 197 209 198 212 219 227 216 198 195 195 194 189 189 192 232 236 229 216 179 175 176 181 198 198 194 191 192 191 192 197 202 201
337 335 335 333 330 331 325 326 327 326 323 320 315 307 299 293 300 304 299 290 289 262 247 243 235 241 289 287 51 70 237 232 233 64 320 279 309 303 315 299 287 247 221 222 220 223 218 219 216 216 225 205 226 227 214 209 204 204 216 213 212 213 222 203 190 195 196 176 190 198 225 227 230 214 168 178 178 181 197 198 195 192 192 191 196 194 197 197
337 334 333 331 329 328 326 324 327 327 323 320 310 299 293 293 303 307 311 272 197 191 208 249 225 235 260 92 323 271 260 192 27 274 274 305 299 293 296 288 257 236 196 209 202 206 200 219 203 227 227 225 206 214 213 212 204 203 208 225 212 210 205 215 178 197 194 188 193 205 225 230 242 169 183 179 181 185 197 198 196 195 194 195 195 194 194 196
337 335 332 330 328 329 329 329 327 325 322 316 307 295 290 299 292 236 183 171 93 163 212 303 245 255 239 244 259 86 50 285 248 302 295 297 288 269 266 277 250 252 230 206 197 212 189 213 200 218 200 217 208 206 213 206 201 198 198 211 215 214 209 207 187 185 193 192 202 200 218 225 203 183 180 186 189 195 202 201 199 198 197 194 195 195 194 197
337 333 333 330 330 328 330 327 325 324 323 316 289 269 261 276 248 235 247 182 234 204 210 171 203 214 339 1 238 269 277 325 283 274 284 283 202 262 264 266 259 224 209 211 193 205 186 221 206 217 213 203 208 206 212 215 210 216 207 212 215 212 202 209 185 183 189 190 205 204 211 214 200 191 183 179 188 196 204 206 205 202 197 194 195 195 193 201
337 334 332 329 328 328 329 329 328 324 330 314 320 314 248 242 221 201 177 250 252 261 276 295 235 263 288 281 278 300 312 267 274 263 272 260 253 239 240 233 219 208 219 214 193 199 191 209 209 209 214 208 210 212 216 221 276 265 226 215 213 213 207 203 196 172 187 192 204 210 215 212 212 195 188 178 184 199 203 205 207 200 197 195 197 195 197 202
331 332 329 329 328 328 328 331 327 323 325 306 316 318 3 343 320 327 327 288 274 270 271 264 262 270 266 287 290 293 307 300 247 263 243 225 235 276 222 209 215 218 212 221 221 180 211 220 222 218 219 217 213 215 222 226 257 229 226 214 205 203 197 188 190 171 185 196 204 213 214 213 210 202 194 181 184 198 202 202 202 200 197 197 199 199 199 202
334 329 328 328 327 329 330 329 328 322 279 292 303 327 326 338 334 335 323 302 279 278 270 258 269 266 264 268 273 284 269 274 272 245 233 213 216 222 184 203 207 229 207 213 227 209 211 219 224 221 219 224 218 212 216 221 216 230 218 199 203 194 213 172 201 175 187 203 219 203 216 213 210 204 195 189 190 199 201 202 200 199 195 195 198 202 201 197
331 329 326 328 327 328 328 330 326 314 301 300 308 309 326 348 334 308 289 279 287 282 256 261 248 248 259 260 261 219 238 233 269 192 162 183 206 224 219 210 218 226 225 206 217 209 214 221 226 221 216 219 220 213 211 217 223 224 220 213 211 204 197 185 199 190 190 205 213 211 212 213 210 206 203 197 195 200 203 205 206 204 199 196 198 200 198 198
329 329 327 327 329 329 329 328 310 270 269 311 297 298 324 308 320 300 289 296 306 311 275 246 258 253 257 280 100 207 230 246 227 248 165 198 213 199 231 223 228 221 223 213 218 219 217 221 218 215 214 209 212 206 208 209 214 227 233 227 218 203 199 214 181 193 191 203 235 213 209 217 205 202 202 199 200 203 199 203 208 206 209 205 204 205 203 202
331 329 328 326 327 328 327 321 297 289 307 289 282 11 289 310 307 319 293 289 247 230 139 218 214 233 168 88 187 230 220 262 252 270 230 213 209 197 223 221 235 225 220 217 220 224 225 216 264 206 213 198 211 207 206 207 218 218 224 237 233 211 204 200 175 169 180 198 203 193 204 218 199 204 200 190 195 203 198 202 204 204 204 206 207 206 205 209
326 326 327 326 326 329 319 293 11 319 311 306 339 105 302 314 312 287 294 282 292 118 197 180 191 125 150 184 170 224 257 258 207 218 216 221 251 245 216 225 210 227 211 214 218 226 228 211 198 212 200 206 213 218 205 207 214 214 202 214 244 243 190 202 180 179 192 207 192 207 223 212 191 200 200 190 194 199 198 205 203 202 206 206 208 203 203 207
326 324 327 325 325 328 319 326 346 303 299 10 149 316 320 303 322 251 278 244 253 108 265 81 222 121 231 151 191 171 233 81 280 217 209 189 218 209 247 224 208 244 235 216 215 217 225 224 198 213 206 206 207 211 201 199 208 212 198 192 211 222 208 200 182 199 212 213 190 197 218 235 196 202 195 190 192 198 203 205 205 202 202 205 205 203 202 204
326 326 325 323 319 313 281 289 293 286 293 326 290 303 317 337 267 259 254 312 253 152 189 162 229 106 246 162 206 232 331 328 281 143 224 177 209 204 228 234 225 218 211 208 217 199 208 219 209 209 214 206 207 204 191 195 207 203 191 183 193 208 217 206 198 203 217 200 204 192 205 230 238 188 186 184 193 199 204 201 201 202 201 204 206 205 204 203
327 326 325 322 317 300 277 248 261 271 337 328 311 274 314 297 260 279 302 275 76 255 37 212 130 205 204 190 226 234 262 257 276 115 155 191 213 233 214 233 242 230 223 218 221 203 201 225 211 216 213 209 205 199 199 188 199 207 165 183 179 194 204 203 207 207 210 209 213 197 196 219 220 200 178 187 199 199 200 198 196 197 199 203 207 207 205 203
327 326 326 323 313 259 219 229 245 267 299 264 260 291 289 258 261 238 246 251 57 293 170 68 219 245 186 240 251 229 244 247 259 269 226 241 197 220 260 294 243 231 216 214 228 215 192 210 227 212 213 214 201 201 197 188 201 195 175 174 171 177 188 200 215 211 213 219 221 208 196 211 219 203 189 191 203 195 188 192 194 196 199 203 207 206 202 201
326 326 325 320 288 347 229 251 52 255 246 245 264 272 278 247 267 288 249 16 240 290 221 209 237 98 254 277 285 263 249 266 270 246 238 214 206 204 219 230 231 232 219 208 211 213 214 208 206 213 216 215 212 196 190 187 198 193 184 181 165 174 176 184 201 218 216 223 220 214 198 200 228 206 197 201 193 194 190 191 192 194 198 201 203 206 204 202
327 323 322 309 262 238 261 16 351 320 218 207 209 262 255 269 205 240 300 123 271 103 265 314 263 278 286 282 275 273 267 261 252 249 235 206 205 202 203 221 196 207 208 198 195 197 210 213 199 200 208 212 194 194 180 189 193 192 192 189 179 170 174 182 185 195 214 220 203 206 199 200 221 228 190 196 188 188 193 194 193 193 197 200 201 201 202 202
326 324 311 252 222 214 237 313 329 67 159 170 226 242 261 279 284 287 290 53 294 68 174 177 254 264 267 275 269 268 253 254 225 235 230 221 223 201 209 220 219 221 199 187 189 182 199 221 194 196 194 205 206 198 176 185 187 190 194 188 185 181 179 183 188 198 214 211 308 200 195 222 220 226 232 189 184 187 187 196 196 195 196 199 200 198 197 196
325 319 302 57 264 242 293 205 164 148 156 155 248 240 243 260 270 286 280 265 285 152 261 241 266 266 267 260 271 290 279 223 231 234 213 213 214 205 214 210 228 248 263 180 195 178 182 196 198 186 194 187 208 210 184 184 177 192 195 193 198 187 178 179 190 194 201 192 177 198 184 220 209 196 209 198 187 191 188 195 199 199 198 199 198 195 194 192
316 294 278 173 217 203 211 210 179 189 185 183 223 247 288 275 293 305 293 289 273 278 264 270 262 274 278 261 253 247 236 263 209 222 213 215 206 218 193 201 216 235 255 199 182 185 192 200 177 192 187 182 199 208 190 185 181 195 199 199 204 201 169 201 195 215 200 182 165 187 203 192 207 45 170 175 182 187 187 194 198 199 202 196 195 193 191 191
292 129 248 49 332 77 205 199 191 214 217 204 253 258 265 292 290 325 299 32 251 250 288 292 261 255 257 281 189 251 162 249 192 208 207 215 209 211 197 200 213 214 215 203 165 183 182 195 161 181 194 182 198 200 195 194 185 177 197 204 203 204 196 191 94 25 41 190 197 171 210 208 88 151 168 186 187 186 186 194 195 196 195 192 194 192 189 188
318 280 193 16 26 356 161 192 184 194 212 210 252 287 299 295 286 290 289 260 282 223 282 285 247 218 298 305 279 178 155 197 219 215 196 196 212 227 183 198 215 218 227 243 181 205 177 159 162 181 184 182 195 204 195 195 201 173 203 190 193 220 234 195 198 133 200 189 196 186 205 203 195 197 167 184 187 182 185 187 189 187 182 183 185 186 187 190
315 274 263 27 9 49 206 173 190 195 215 232 239 251 294 279 272 277 291 293 278 201 252 243 242 204 264 285 331 25 153 227 158 211 205 184 214 182 191 203 210 244 220 230 230 178 231 149 165 175 181 179 186 192 197 209 219 196 198 178 194 172 200 194 215 184 195 201 194 194 211 221 205 185 166 182 185 181 184 188 188 186 184 186 187 189 190 189
280 251 212 29 6 74 140 173 194 200 207 244 265 287 248 265 284 292 294 287 257 265 250 230 242 212 258 292 337 282 168 221 166 205 207 171 221 171 194 197 211 221 223 208 200 170 202 168 153 178 187 172 185 188 190 189 208 256 230 199 197 200 201 188 208 196 197 206 213 196 198 219 201 193 170 180 191 180 183 190 192 188 188 190 191 191 191 190
306 251 156 37 28 108 132 182 192 206 225 254 284 264 291 292 286 289 283 291 286 211 242 256 210 258 222 261 283 299 166 256 193 203 228 162 213 126 183 199 214 191 197 196 214 245 177 281 150 168 178 165 189 193 187 192 182 187 214 192 187 224 203 229 199 234 198 207 201 199 194 211 194 207 182 179 187 188 188 187 188 190 191 193 192 192 190 187
268 261 87 45 49 121 176 189 206 219 247 271 272 271 289 282 301 296 295 298 266 227 246 262 226 214 267 271 245 228 203 207 223 215 220 164 211 156 195 194 209 188 180 183 216 169 195 184 153 160 170 184 188 188 198 186 190 194 194 189 189 189 186 196 204 195 235 221 199 210 215 179 166 163 195 183 177 189 194 193 191 192 194 196 195 191 182 181
302 298 49 80 130 198 212 252 244 228 266 296 320 321 295 296 293 300 318 354 232 253 223 244 245 255 266 275 282 224 244 209 200 215 212 195 188 276 165 206 198 194 180 164 169 151 306 333 164 162 171 178 189 180 219 190 190 202 199 205 196 202 208 204 202 187 212 228 281 212 213 204 106 183 182 196 188 192 191 197 200 197 197 196 194 186 179 176
337 342 68 98 134 226 258 276 227 234 282 306 311 291 286 291 286 305 308 315 316 216 244 217 233 225 229 247 269 241 229 237 204 210 219 198 177 201 149 192 196 194 213 140 130 152 219 198 153 158 164 172 151 178 198 229 192 200 207 216 204 207 205 216 216 181 203 174 196 168 205 146 125 16 170 102 86 59 194 209 207 200 196 190 181 177 172 169
317 301 179 127 228 258 284 348 330 329 327 322 320 301 291 272 281 301 309 311 244 301 248 260 227 241 287 228 279 253 196 231 191 219 195 199 176 148 187 211 205 199 200 155 185 150 209 195 181 148 154 159 159 177 204 215 223 212 203 212 214 209 206 222 232 215 226 204 208 216 188 187 110 105 144 189 187 215 216 207 199 168 160 164 164 162 163 164
292 218 260 165 168 217 313 354 321 315 322 321 323 316 331 336 300 290 303 302 298 249 298 273 287 141 225 213 231 265 266 278 143 202 222 178 144 154 206 220 213 218 194 14 266 128 261 151 193 158 163 166 171 180 188 193 203 207 214 200 210 217 202 198 222 188 227 202 212 218 204 105 120 121 127 145 165 194 220 212 201 201 179 169 164 165 166 169
2 335 71 193 172 244 240 271 291 320 316 325 321 313 331 333 336 349 334 308 283 235 227 292 294 153 219 180 222 222 233 214 245 152 184 165 170 157 194 205 214 224 169 167 241 232 279 253 261 307 201 164 143 153 152 195 190 209 201 210 197 215 216 218 216 221 211 201 216 204 244 139 151 161 159 152 156 176 192 192 191 184 175 173 167 166 170 171
296 352 347 331 314 187 293 294 320 326 317 325 308 329 325 333 329 335 23 316 359 300 232 202 204 172 198 220 232 241 223 230 203 205 177 161 151 140 178 208 209 220 238 220 244 239 262 244 205 298 278 221 176 125 95 217 197 201 201 201 205 202 212 215 214 220 213 222 220 200 235 253 246 225 160 142 122 111 141 180 183 178 172 172 171 168 167 168
324 66 347 28 295 318 333 346 350 321 313 314 308 317 322 330 340 340 336 190 312 316 309 158 187 242 237 213 228 221 193 203 197 209 210 209 172 162 177 199 210 202 213 233 215 230 238 274 340 308 289 307 321 266 163 197 225 203 205 201 203 203 209 216 218 225 220 223 229 191 240 248 251 237 66 137 73 57 107 152 180 177 172 167 165 166 170 173
19 329 359 17 303 306 308 305 310 304 299 321 308 318 329 332 331 352 330 313 326 333 351 324 322 321 291 232 236 242 185 175 217 228 207 181 190 169 172 168 223 194 204 224 227 205 270 246 332 305 297 287 268 249 224 225 206 220 212 207 206 205 211 216 218 220 227 230 238 211 221 248 250 257 216 119 74 83 116 143 159 179 183 177 175 173 177 182
26 356 336 335 291 281 277 291 303 305 309 333 320 343 328 326 328 335 339 329 317 312 333 284 307 331 335 339 210 219 207 232 358 214 207 215 185 214 166 190 154 195 198 215 219 173 254 118 40 301 284 241 239 246 254 232 223 218 218 218 210 209 211 212 216 223 225 240 236 261 295 278 264 249 139 106 109 120 144 171 182 185 184 181 181 181 183 187
344 342 319 315 311 310 310 315 320 318 313 1 343 336 327 326 325 328 312 299 276 308 332 325 328 324 323 125 121 231 266 268 279 278 219 206 203 199 216 187 232 174 194 203 220 169 212 271 285 275 277 205 188 266 286 240 219 226 221 216 215 208 209 207 214 209 214 216 224 244 242 244 246 116 122 125 144 164 185 183 183 188 187 183 186 189 188 189
343 353 321 314 305 300 304 329 312 321 350 357 332 323 325 312 313 327 325 331 322 304 324 325 323 322 350 141 204 225 225 236 243 247 235 235 260 242 237 318 205 180 180 207 199 216 198 257 269 266 278 212 36 326 271 185 193 220 223 212 208 212 214 212 217 216 219 219 217 219 227 240 251 266 298 318 150 228 201 193 189 193 191 187 188 191 193 189